When you browse on this site, cookies collect data to enhance your experience and personalize the content and advertising you see.
Visit our Privacy Policy to learn more. By continuing to use the site, you agree to this use of cookies and data.
  • In United Kingdom
  • List of Countries
  • For 7 days
  • Water Temperature
  • Weather Map
  • Weather Widgets
  • user-avatar
    Login

    Hourly Weather Offenbach am Main

    Today, 15 December, Sunday

    Time Temperature Precipitation Wind Pressure Humidity
    00:00 +5°C° 0 mm 3 mps 741 mmHg 83%
    01:00 +6°C° 0 mm 2 mps 741 mmHg 88%
    02:00 +5°C° 0.2 mm 3 mps 741 mmHg 90%
    03:00 +7°C° 0.2 mm 3 mps 740 mmHg 92%
    04:00 +7°C° 0.2 mm 3 mps 739 mmHg 93%
    05:00 +7°C° 1.3 mm 4 mps 739 mmHg 93%
    06:00 +8°C° 1.3 mm 5 mps 738 mmHg 92%
    07:00 +8°C° 0 mm 4 mps 738 mmHg 92%
    08:00 +10°C° 0.8 mm 4 mps 739 mmHg 90%
    09:00 +9°C° 0.8 mm 5 mps 739 mmHg 88%
    10:00 +9°C° 0.8 mm 6 mps 740 mmHg 86%
    11:00 +9°C° 0.9 mm 5 mps 741 mmHg 80%
    12:00 +9°C° 0.9 mm 5 mps 742 mmHg 74%
    13:00 +9°C° 0 mm 3 mps 743 mmHg 68%
    14:00 +9°C° 0 mm 3 mps 743 mmHg 69%
    15:00 +9°C° 0 mm 3 mps 744 mmHg 70%
    16:00 +8°C° 0 mm 3 mps 744 mmHg 71%
    17:00 +8°C° 0 mm 3 mps 745 mmHg 74%
    18:00 +8°C° 0 mm 3 mps 745 mmHg 76%
    19:00 +7°C° 0 mm 3 mps 746 mmHg 79%
    20:00 +7°C° 0 mm 2 mps 746 mmHg 81%
    21:00 +7°C° 0 mm 2 mps 747 mmHg 83%
    22:00 +6°C° 0 mm 2 mps 747 mmHg 85%
    23:00 +7°C° 0.2 mm 2 mps 747 mmHg 88%

    Tomorrow, 16 December, Monday

    Time Temperature Precipitation Wind Pressure Humidity
    00:00 +8°C° 0.2 mm 1 mps 747 mmHg 91%
    01:00 +8°C° 0.2 mm 1 mps 747 mmHg 94%
    02:00 +8°C° 0.2 mm 1 mps 747 mmHg 95%
    03:00 +8°C° 0.2 mm 1 mps 747 mmHg 95%
    04:00 +9°C° 0.2 mm 1 mps 747 mmHg 96%
    05:00 +8°C° 0.3 mm 2 mps 746 mmHg 95%
    06:00 +8°C° 0.3 mm 2 mps 746 mmHg 95%
    07:00 +8°C° 0.3 mm 2 mps 746 mmHg 94%
    08:00 +8°C° 0.2 mm 2 mps 746 mmHg 93%
    09:00 +8°C° 0.2 mm 2 mps 746 mmHg 91%
    10:00 +8°C° 0.2 mm 2 mps 746 mmHg 90%
    11:00 +9°C° 0 mm 2 mps 746 mmHg 86%
    12:00 +10°C° 0 mm 2 mps 745 mmHg 83%
    13:00 +10°C° 0 mm 2 mps 745 mmHg 79%
    14:00 +10°C° 0 mm 2 mps 745 mmHg 79%
    15:00 +10°C° 0 mm 2 mps 745 mmHg 80%
    16:00 +10°C° 0 mm 2 mps 745 mmHg 80%
    17:00 +10°C° 0 mm 2 mps 745 mmHg 80%
    18:00 +9°C° 0 mm 2 mps 745 mmHg 80%
    19:00 +9°C° 0 mm 2 mps 744 mmHg 81%
    20:00 +9°C° 0 mm 1 mps 744 mmHg 81%
    21:00 +9°C° 0 mm 1 mps 744 mmHg 81%
    22:00 +8°C° 0 mm 1 mps 744 mmHg 82%
    23:00 +8°C° 0 mm 1 mps 744 mmHg 81%

    Day after tomorrow, 17 December, Tuesday

    Time Temperature Precipitation Wind Pressure Humidity
    00:00 +8°C° 0 mm 1 mps 744 mmHg 80%
    01:00 +8°C° 0 mm 1 mps 744 mmHg 79%
    02:00 +8°C° 0 mm 1 mps 744 mmHg 79%
    03:00 +8°C° 0 mm 1 mps 744 mmHg 79%
    04:00 +8°C° 0 mm 1 mps 744 mmHg 79%
    05:00 +8°C° 0 mm 1 mps 744 mmHg 79%
    06:00 +8°C° 0 mm 1 mps 744 mmHg 79%
    07:00 +8°C° 0 mm 1 mps 744 mmHg 79%
    08:00 +8°C° 0 mm 1 mps 744 mmHg 79%
    09:00 +8°C° 0 mm 1 mps 744 mmHg 79%
    10:00 +8°C° 0 mm 1 mps 745 mmHg 79%
    11:00 +9°C° 0 mm 1 mps 745 mmHg 77%
    12:00 +10°C° 0 mm 1 mps 745 mmHg 75%
    13:00 +10°C° 0 mm 1 mps 744 mmHg 73%
    14:00 +10°C° 0 mm 1 mps 745 mmHg 75%
    15:00 +9°C° 0 mm 1 mps 745 mmHg 78%
    16:00 +9°C° 0 mm 1 mps 745 mmHg 80%
    17:00 +9°C° 0 mm 1 mps 745 mmHg 81%
    18:00 +8°C° 0 mm 1 mps 745 mmHg 82%
    19:00 +7°C° 0 mm 2 mps 745 mmHg 83%
    20:00 +8°C° 0 mm 1 mps 745 mmHg 83%
    21:00 +7°C° 0 mm 1 mps 746 mmHg 84%
    22:00 +7°C° 0 mm 1 mps 746 mmHg 84%
    23:00 +7°C° 0 mm 1 mps 746 mmHg 85%

    18 December, Wednesday

    Time Temperature Precipitation Wind Pressure Humidity
    00:00 +7°C° 0 mm 1 mps 746 mmHg 86%
    01:00 +7°C° 0 mm 1 mps 746 mmHg 86%
    02:00 +7°C° 0 mm 1 mps 746 mmHg 86%
    03:00 +7°C° 0 mm 1 mps 746 mmHg 86%
    04:00 +7°C° 0 mm 1 mps 747 mmHg 86%
    05:00 +7°C° 0 mm 1 mps 747 mmHg 86%
    06:00 +7°C° 0 mm 1 mps 747 mmHg 86%
    07:00 +7°C° 0 mm 1 mps 747 mmHg 86%
    08:00 +7°C° 0 mm 1 mps 747 mmHg 86%
    09:00 +8°C° 0 mm 1 mps 747 mmHg 86%
    10:00 +8°C° 0 mm 1 mps 747 mmHg 86%
    11:00 +9°C° 0 mm 1 mps 747 mmHg 84%
    12:00 +10°C° 0 mm 1 mps 747 mmHg 82%
    13:00 +11°C° 0 mm 1 mps 747 mmHg 81%
    14:00 +10°C° 0 mm 1 mps 747 mmHg 83%
    15:00 +10°C° 0 mm 1 mps 747 mmHg 85%
    16:00 +9°C° 0 mm 1 mps 747 mmHg 87%
    17:00 +9°C° 0 mm 1 mps 747 mmHg 89%
    18:00 +8°C° 0 mm 1 mps 747 mmHg 90%
    19:00 +8°C° 0 mm 1 mps 746 mmHg 91%
    20:00 +8°C° 0 mm 1 mps 746 mmHg 91%
    21:00 +8°C° 0 mm 1 mps 746 mmHg 91%
    22:00 +7°C° 0 mm 1 mps 746 mmHg 91%
    23:00 +7°C° 0 mm 1 mps 746 mmHg 91%

    19 December, Thursday

    Time Temperature Precipitation Wind Pressure Humidity
    00:00 +7°C° 0 mm 1 mps 746 mmHg 92%
    01:00 +7°C° 0 mm 1 mps 745 mmHg 92%
    02:00 +7°C° 0 mm 1 mps 745 mmHg 92%
    03:00 +7°C° 0 mm 1 mps 745 mmHg 92%
    04:00 +6°C° 0 mm 0 mps 745 mmHg 92%
    05:00 +5°C° 0 mm 0 mps 745 mmHg 92%
    06:00 +6°C° 0 mm 1 mps 745 mmHg 93%
    07:00 +6°C° 0 mm 1 mps 744 mmHg 93%
    08:00 +6°C° 0 mm 1 mps 744 mmHg 91%
    09:00 +6°C° 0 mm 1 mps 744 mmHg 90%
    10:00 +6°C° 0 mm 1 mps 744 mmHg 88%
    11:00 +7°C° 0 mm 1 mps 744 mmHg 84%
    12:00 +8°C° 0 mm 1 mps 744 mmHg 80%
    13:00 +9°C° 0 mm 1 mps 743 mmHg 77%
    14:00 +9°C° 0 mm 1 mps 743 mmHg 79%
    15:00 +8°C° 0 mm 1 mps 743 mmHg 82%
    16:00 +8°C° 0 mm 1 mps 742 mmHg 84%
    17:00 +8°C° 0 mm 1 mps 742 mmHg 86%
    18:00 +7°C° 0 mm 1 mps 742 mmHg 87%
    19:00 +7°C° 0 mm 1 mps 742 mmHg 88%
    20:00 +7°C° 0 mm 1 mps 742 mmHg 89%
    21:00 +7°C° 0 mm 1 mps 742 mmHg 89%
    22:00 +6°C° 0 mm 1 mps 741 mmHg 90%
    23:00 +6°C° 0 mm 1 mps 741 mmHg 91%

    20 December, Friday

    Time Temperature Precipitation Wind Pressure Humidity
    00:00 +6°C° 0 mm 1 mps 741 mmHg 91%
    01:00 +6°C° 0 mm 1 mps 740 mmHg 92%
    02:00 +6°C° 0 mm 1 mps 740 mmHg 92%
    03:00 +6°C° 0 mm 1 mps 740 mmHg 91%
    04:00 +6°C° 0 mm 1 mps 740 mmHg 91%
    05:00 +6°C° 0 mm 1 mps 739 mmHg 91%
    06:00 +6°C° 0 mm 1 mps 739 mmHg 92%
    07:00 +6°C° 0 mm 1 mps 739 mmHg 92%
    08:00 +6°C° 0.1 mm 1 mps 739 mmHg 92%
    09:00 +7°C° 0.1 mm 1 mps 738 mmHg 91%
    10:00 +7°C° 0.1 mm 1 mps 738 mmHg 91%
    11:00 +7°C° 0 mm 1 mps 737 mmHg 88%
    12:00 +7°C° 0 mm 2 mps 736 mmHg 86%
    13:00 +7°C° 0 mm 2 mps 734 mmHg 83%
    14:00 +7°C° 0 mm 2 mps 734 mmHg 84%
    15:00 +7°C° 0 mm 2 mps 733 mmHg 86%
    16:00 +6°C° 0 mm 2 mps 733 mmHg 87%
    17:00 +6°C° 0 mm 2 mps 732 mmHg 88%
    18:00 +6°C° 0 mm 2 mps 732 mmHg 89%
    19:00 +5°C° 0 mm 2 mps 731 mmHg 89%
    20:00 +6°C° 0 mm 1 mps 731 mmHg 89%
    21:00 +6°C° 0 mm 1 mps 731 mmHg 90%
    22:00 +6°C° 0 mm 1 mps 731 mmHg 90%
    23:00 +6°C° 0 mm 1 mps 731 mmHg 90%
    Show more